GEFSCGP_500_meanwind_180.txt.gz
Wind_Speed
9 10 10 10 10 10 11 12 13 13 13 14 14 13 13 15 14 15 17 18 20 20 20 20 21 20 21 23 25 27 26 28 29 29 30 32 33 32 32 34 33 33 32 31
11 11 10 11 11 11 12 13 14 15 15 15 15 14 14 16 16 17 17 18 18 19 19 20 20 21 21 22 23 26 27 29 29 30 30 32 33 33 32 33 32 32 32 32
12 11 11 11 12 13 14 15 15 16 17 17 17 16 15 17 18 18 18 19 19 20 20 20 20 21 22 22 23 25 28 28 27 26 28 29 31 33 33 32 32 32 32 32
12 12 12 13 14 15 16 16 17 17 18 19 19 19 17 17 17 18 19 20 21 21 21 20 20 21 22 23 25 25 27 27 26 26 26 28 30 31 31 31 32 32 33 32
14 14 14 15 16 17 17 18 18 18 19 20 20 21 19 18 18 19 20 21 22 22 23 23 23 23 24 25 25 26 26 27 27 26 27 28 30 31 31 31 31 32 33 32
16 16 17 17 18 19 19 20 20 20 21 21 21 23 22 20 19 20 20 22 23 24 24 25 25 26 26 27 26 26 27 27 27 27 26 28 30 31 32 31 30 31 33 32
18 18 19 19 19 20 21 21 22 22 23 23 23 24 23 22 21 21 21 22 23 24 26 26 27 27 27 27 27 27 27 28 28 29 29 28 30 32 32 33 32 33 34 34
21 21 21 21 21 22 22 23 23 24 24 24 24 25 24 23 23 23 23 23 24 26 27 27 27 28 28 28 28 28 28 29 31 31 31 31 32 33 34 35 34 34 34 35
24 24 24 24 24 24 25 25 25 26 27 26 26 26 25 25 25 24 24 25 25 26 27 28 28 29 29 29 30 30 30 31 32 32 33 34 34 34 35 36 36 36 36 36
26 27 27 27 27 27 27 27 27 27 28 28 28 27 27 26 26 26 25 25 26 27 28 29 29 30 31 32 32 32 33 33 34 34 35 35 36 36 36 36 38 38 37 37
29 29 29 29 29 29 29 29 29 30 30 30 30 30 28 27 27 27 26 27 27 28 29 29 30 32 33 34 34 35 35 35 36 37 37 37 37 38 38 39 39 40 40 39
30 31 31 31 30 31 31 31 31 31 32 32 33 32 30 29 28 29 29 29 29 30 31 32 33 34 34 35 36 36 37 37 38 38 39 39 39 39 40 41 41 42 41 41
33 33 33 33 32 32 32 32 33 33 34 34 34 33 32 31 31 31 32 32 32 32 33 34 35 35 36 36 37 37 38 38 38 39 40 40 41 40 40 41 42 43 43 43
34 35 35 34 34 33 34 34 34 35 36 36 35 34 33 33 33 34 34 34 35 35 35 35 35 36 36 37 38 38 39 39 39 39 40 40 40 41 42 42 42 43 43 43
37 37 37 36 36 36 36 37 37 37 37 38 36 36 34 36 37 37 36 36 36 37 37 37 37 38 38 38 39 39 40 40 40 40 41 41 42 42 43 43 43 43 44 44
38 39 39 39 39 40 40 39 39 39 39 40 40 39 37 39 40 40 39 39 38 38 38 38 39 40 39 39 40 40 41 41 41 42 42 43 43 44 44 44 44 44 45 45
41 41 42 42 42 43 43 40 40 41 41 41 42 41 41 41 42 42 42 41 40 40 40 40 41 42 42 42 42 43 43 44 44 44 44 44 45 45 46 46 46 46 46 47
42 42 44 44 44 46 44 43 42 42 41 41 42 41 41 42 42 43 43 43 42 42 42 42 43 43 43 43 44 44 45 45 45 45 45 45 45 46 46 47 48 48 49 49
43 43 44 45 46 47 44 43 42 43 42 41 41 41 42 42 43 42 42 43 43 43 43 42 43 43 43 43 44 45 45 46 46 46 47 46 46 47 47 48 49 49 50 51
44 44 45 45 46 47 44 42 42 43 43 42 42 42 42 43 43 41 42 42 42 42 42 42 43 43 44 44 44 45 46 46 47 47 48 48 48 49 49 50 51 52 52 53
43 44 44 45 46 46 44 43 43 43 43 43 43 43 43 43 43 42 41 42 42 42 43 43 43 43 44 45 45 46 46 47 48 49 49 50 50 51 51 51 52 53 54 54
43 44 44 45 46 46 43 44 45 45 44 44 45 44 44 43 42 42 42 42 42 43 43 44 45 45 45 46 47 47 47 48 50 50 51 51 52 52 53 53 54 54 55 55
43 44 44 45 46 45 44 45 45 46 46 45 45 45 45 44 44 43 43 43 43 44 44 45 46 46 47 48 49 49 49 50 51 52 53 53 54 54 55 55 55 55 55 56
43 43 44 45 45 44 44 45 46 46 45 45 45 46 46 46 46 46 46 45 44 44 45 46 47 47 47 48 50 51 52 53 54 54 54 54 54 54 54 54 54 55 55 55
42 43 44 45 44 44 44 45 45 45 45 45 45 46 46 47 46 46 46 46 46 47 47 47 47 47 48 49 50 51 52 53 53 53 53 53 53 53 53 53 53 54 54 54
41 42 44 44 43 44 43 43 43 44 44 44 45 45 45 45 46 46 46 46 46 47 47 47 48 48 48 49 49 50 51 51 51 52 52 53 53 53 54 54 54 54 54 53

GEFSCGP_500_meanwind_186.txt.gz
Wind_Speed
12 12 13 13 13 14 15 16 17 17 18 19 19 17 15 15 15 16 16 17 19 21 21 22 24 25 27 28 28 27 28 29 29 31 31 30 31 32 33 34 33 35 35 35
13 14 13 13 13 14 16 17 17 18 19 20 20 18 17 16 16 16 16 17 19 21 21 22 24 25 27 28 28 28 29 30 30 30 31 31 32 34 36 35 35 36 36 36
15 15 14 14 15 16 16 17 17 18 19 20 20 19 18 17 18 17 16 16 18 21 22 22 23 24 26 27 28 28 28 29 29 29 30 31 33 33 35 35 36 36 36 36
16 16 16 17 17 17 18 18 19 20 21 21 22 21 19 19 19 18 17 17 17 20 22 24 24 26 26 28 29 28 29 28 27 29 30 30 32 33 33 33 34 34 34 34
19 18 19 19 19 19 19 20 20 21 22 23 22 23 21 21 20 20 19 19 19 20 22 24 26 26 28 29 29 29 29 30 29 28 30 30 31 32 33 33 34 34 34 36
21 21 21 21 22 21 21 21 22 23 24 24 23 24 23 21 21 21 21 21 21 22 23 25 25 26 27 29 30 30 31 31 31 32 32 31 31 32 34 34 34 36 37 37
24 24 23 23 24 24 23 23 24 25 26 26 25 26 25 23 23 23 23 23 23 24 25 26 27 27 28 30 32 33 33 34 34 34 34 33 34 34 36 36 36 36 36 36
26 25 25 25 25 25 25 26 26 27 28 27 27 28 27 27 26 26 26 26 26 26 27 28 29 29 30 31 33 34 34 34 34 34 34 34 35 35 36 36 36 37 37 37
28 27 26 26 27 27 26 27 27 29 29 29 30 30 29 28 28 28 28 28 28 29 29 29 30 31 31 32 33 34 34 34 35 35 35 35 35 35 36 36 37 39 40 39
29 30 28 27 28 28 28 28 28 29 30 30 30 30 30 29 29 29 29 30 30 30 31 31 30 31 32 33 35 35 35 35 36 36 36 35 35 36 36 37 38 39 39 39
31 32 30 29 30 30 30 30 30 31 31 31 32 31 31 31 31 31 30 31 31 32 32 32 32 33 34 34 35 36 35 36 36 37 36 36 36 37 37 38 38 40 40 41
33 33 33 32 32 32 32 32 32 33 34 34 35 34 33 33 33 33 33 34 34 34 34 35 35 35 35 35 36 36 36 36 37 37 37 37 37 37 38 39 40 41 41 42
35 35 35 34 33 33 34 34 35 36 37 37 37 36 35 35 35 36 36 36 37 37 37 37 37 36 36 37 37 38 37 37 38 39 39 40 41 40 40 40 41 42 42 43
37 37 36 36 36 35 35 35 37 38 39 39 38 37 37 38 38 38 38 38 38 38 38 38 38 38 38 38 39 39 39 39 39 40 40 41 42 43 43 43 43 43 44 44
39 40 39 38 38 39 39 38 38 40 40 41 39 39 39 39 40 40 40 40 40 40 40 39 39 39 40 40 40 41 41 40 41 41 42 42 42 43 43 44 44 44 44 45
42 42 41 41 40 42 43 42 41 41 41 42 42 41 40 41 41 41 41 41 41 41 41 42 42 42 42 42 42 43 43 43 43 43 44 44 44 44 45 44 45 45 44 45
43 44 44 43 42 44 45 42 43 43 42 43 43 42 42 43 42 42 42 42 43 43 44 44 44 44 45 45 45 45 45 46 45 45 45 46 46 46 46 46 46 45 45 46
45 45 45 46 45 46 44 44 44 44 44 44 44 43 43 43 43 44 44 44 44 45 46 46 45 46 46 47 47 47 47 47 47 47 47 47 47 47 47 48 48 47 47 47
45 45 45 46 47 47 45 45 45 45 45 44 44 45 44 43 44 44 44 44 45 45 46 46 46 47 47 47 47 48 48 48 48 48 48 48 48 49 49 49 50 50 50 50
45 45 46 46 47 48 46 45 44 46 47 45 46 46 46 45 45 44 45 45 46 46 46 46 46 47 47 47 47 48 48 48 48 49 49 49 50 50 51 51 51 52 52 52
45 45 45 45 46 48 46 45 45 46 47 46 46 46 47 47 46 46 45 46 46 47 47 47 47 47 47 47 48 48 48 48 49 50 50 50 50 51 51 52 53 54 54 54
44 45 45 44 45 45 44 44 45 46 47 46 46 47 47 47 47 46 46 46 46 47 47 47 48 48 47 48 48 48 47 48 49 49 50 50 51 51 52 53 54 55 56 56
44 44 45 45 44 43 43 44 45 45 46 46 47 47 48 48 48 48 47 46 46 47 47 47 48 48 48 48 48 48 48 49 49 50 51 51 52 52 53 54 55 56 56 57
42 42 43 44 43 43 44 44 45 45 46 46 47 47 48 49 49 49 48 47 47 47 48 48 49 49 49 48 48 49 49 49 50 50 50 51 52 53 54 55 56 57 57 57
41 42 43 44 44 45 45 45 45 45 46 46 47 47 48 49 49 49 48 47 47 48 48 48 49 49 48 48 48 48 48 49 49 49 50 50 51 53 53 54 54 55 55 55
40 41 42 43 43 44 43 44 44 44 45 45 46 46 46 47 48 48 47 46 47 48 48 48 48 47 47 46 46 46 47 47 48 48 49 50 50 51 52 52 51 52 52 52

GEFSCGP_500_meanwind_192.txt.gz
Wind_Speed
17 17 17 17 18 18 18 18 18 19 19 19 19 18 19 20 20 20 20 20 20 20 21 21 21 22 23 24 25 28 28 30 30 29 28 30 31 32 33 34 34 34 35 35
18 18 17 18 18 18 18 18 18 19 20 20 20 19 20 19 20 20 21 21 21 21 21 21 21 23 24 24 26 27 28 29 30 31 30 31 31 32 33 34 35 35 35 36
18 18 19 19 20 20 20 20 20 21 21 22 22 21 21 21 20 21 21 20 21 21 21 21 22 23 24 24 25 27 29 29 30 30 30 32 32 33 35 36 36 36 37 37
19 19 20 20 20 20 21 21 21 22 22 23 24 23 21 21 21 21 21 21 21 21 22 22 23 23 25 25 26 27 28 30 31 30 30 31 32 33 33 34 35 36 38 39
21 21 21 21 21 22 22 22 23 24 24 24 24 25 22 22 22 22 22 22 22 22 23 23 24 24 25 26 27 26 28 30 31 31 30 30 31 32 33 33 34 36 36 38
23 23 23 23 23 23 24 24 24 25 26 26 24 26 24 24 23 23 24 24 23 23 23 24 25 26 27 28 28 28 29 30 31 31 31 33 33 34 35 34 35 37 38 37
25 24 24 24 24 24 24 25 25 26 27 27 26 27 25 24 25 24 25 25 24 24 24 25 26 27 28 29 30 30 32 33 33 34 34 34 35 35 35 35 36 37 38 39
27 26 25 25 25 25 25 25 26 27 28 27 27 27 26 24 25 27 27 27 27 27 28 28 28 28 29 30 31 32 33 34 35 36 36 36 36 36 36 36 37 37 38 39
29 28 26 26 25 25 25 25 26 27 29 30 30 28 27 26 26 27 28 29 29 29 28 28 29 29 29 30 31 33 34 34 36 37 39 39 39 38 38 39 38 38 38 39
30 30 28 27 27 26 26 26 27 27 28 30 30 30 29 27 27 27 27 29 30 30 30 29 29 31 31 32 33 34 35 35 36 37 38 40 40 40 40 40 40 40 39 40
32 32 30 29 28 28 27 28 29 30 30 31 30 29 29 29 29 29 29 30 30 31 31 32 31 31 32 33 34 35 35 36 38 38 39 40 41 41 40 40 40 41 42 41
33 33 32 32 31 31 31 30 31 31 32 32 33 32 30 30 30 30 30 31 32 32 33 33 34 34 34 34 35 36 36 37 38 39 39 40 40 41 41 41 41 41 42 43
34 35 35 35 34 34 33 32 33 33 34 34 34 34 32 31 31 32 33 33 34 35 35 36 36 37 37 36 37 37 38 38 39 39 39 40 40 41 41 42 42 43 43 43
36 37 36 36 36 35 35 34 35 36 36 36 36 35 34 35 34 34 35 35 36 37 37 38 38 38 38 38 38 39 39 40 40 41 41 41 42 42 43 43 43 44 44 44
37 37 37 37 37 37 37 36 37 38 37 38 37 37 36 37 37 38 38 38 38 39 39 40 39 39 39 39 40 40 41 42 42 43 43 43 43 44 44 44 43 44 45 46
40 40 40 39 39 40 40 39 39 39 39 40 40 39 38 40 41 41 41 40 40 41 41 41 41 41 41 41 41 42 43 44 44 44 44 45 45 45 45 45 45 45 45 46
42 42 42 42 40 41 41 39 39 40 40 41 41 39 39 41 42 43 43 43 43 43 43 43 43 43 43 43 43 43 44 45 46 46 46 46 47 46 46 46 46 46 46 46
42 42 43 43 42 43 40 39 39 40 40 40 41 40 40 42 43 44 45 45 45 45 45 44 44 44 45 45 44 44 45 46 47 47 48 48 48 47 47 47 47 46 47 47
42 42 42 43 43 43 41 39 39 40 40 40 41 41 42 43 44 45 45 45 45 45 44 45 45 45 46 46 46 46 46 47 47 48 48 49 49 49 49 49 49 48 48 48
41 41 41 42 42 43 41 41 42 42 42 42 42 42 42 43 44 44 45 45 45 44 45 45 45 46 46 46 47 47 47 47 47 48 48 49 50 50 50 50 50 50 50 49
40 40 40 41 42 43 42 43 42 42 42 41 42 42 42 43 44 44 45 45 45 45 45 45 46 46 46 46 47 47 47 47 48 48 48 49 50 51 51 51 50 51 51 51
39 40 40 41 42 42 41 42 41 41 41 41 41 41 42 43 43 44 44 45 45 45 45 46 46 46 46 46 47 47 47 47 47 48 48 49 49 50 50 50 51 51 51 52
40 40 40 41 41 41 40 40 40 40 41 41 42 42 43 43 44 44 45 45 45 45 46 46 46 46 46 46 46 46 47 47 48 48 48 48 48 49 49 50 51 52 52 52
38 39 39 39 39 40 40 39 39 40 42 42 42 42 42 43 43 43 44 44 44 44 45 45 46 46 46 46 47 47 47 48 48 48 48 48 47 47 48 49 50 51 52 52
37 38 38 38 37 38 38 39 40 40 41 41 41 41 41 42 42 42 42 43 43 43 43 44 44 44 44 45 46 47 47 48 48 47 47 47 47 47 47 48 49 49 50 51
35 36 37 36 35 36 36 37 38 39 40 40 40 40 40 41 41 41 42 42 42 43 43 43 43 43 44 44 45 45 46 46 46 46 46 46 46 47 47 47 47 48 48 48

GEFSCGP_500_meanwind_198.txt.gz
Wind_Speed
26 25 24 25 25 25 25 25 25 24 24 24 24 24 24 24 24 24 24 24 23 23 24 25 26 26 26 27 27 27 28 28 29 29 31 32 32 31 31 32 32 33 34 34
27 26 25 25 25 26 26 25 25 25 25 25 25 25 25 25 25 26 25 25 25 24 24 24 25 26 26 27 29 29 28 29 30 30 31 32 33 32 31 32 31 33 35 35
27 26 26 26 26 25 25 25 25 26 26 26 27 26 26 26 26 27 27 27 27 26 25 25 25 25 26 26 27 28 28 28 30 30 31 33 34 34 32 33 33 33 35 37
28 27 27 27 26 26 25 26 27 28 28 27 27 28 26 26 27 27 27 28 29 28 26 26 25 25 25 26 26 26 27 28 30 31 32 34 34 34 33 33 34 34 36 38
29 28 28 27 26 27 26 26 27 28 29 30 29 30 27 28 28 29 29 29 29 29 29 27 27 27 26 26 27 27 28 28 30 31 32 33 34 35 35 34 35 35 36 38
30 30 29 28 28 27 27 27 28 29 29 30 29 30 29 28 29 30 30 31 30 30 30 30 29 28 28 27 28 29 29 29 30 31 33 33 33 35 36 35 35 36 37 38
32 31 30 30 29 29 28 28 29 30 31 31 29 31 29 28 29 30 31 31 32 32 31 31 31 29 30 29 29 30 30 31 31 31 32 33 34 36 36 36 36 38 39 39
34 33 32 31 30 29 29 28 29 30 31 31 31 32 29 28 29 30 31 32 32 33 34 33 33 31 30 31 32 31 31 31 32 33 34 34 35 36 37 37 36 37 38 38
36 35 33 32 31 31 30 30 30 31 32 32 33 32 31 30 30 30 31 32 32 33 35 34 34 33 32 32 33 33 33 33 33 34 35 36 37 37 37 37 36 36 37 38
37 37 35 34 33 33 33 32 32 32 33 34 34 32 31 31 31 32 32 33 33 33 34 35 35 35 34 34 34 35 35 35 35 36 37 38 38 39 38 38 38 38 38 39
38 39 37 36 35 34 34 34 34 35 35 35 35 34 32 32 33 34 33 33 34 34 34 35 35 36 36 36 36 36 37 38 37 37 38 39 40 40 40 40 40 40 40 40
40 39 39 38 37 37 37 36 36 36 37 37 36 35 33 33 33 34 34 34 34 35 36 36 36 36 37 37 38 38 39 39 39 39 40 40 41 41 41 41 41 42 42 42
41 42 41 41 40 39 39 38 39 39 39 38 37 34 33 34 34 35 35 35 35 36 36 37 37 37 37 38 39 39 39 40 40 40 41 41 42 42 42 43 43 43 42 43
44 44 43 42 41 41 40 40 40 41 41 39 37 35 33 34 36 36 37 37 37 38 38 38 38 38 39 40 41 42 41 41 41 42 42 42 43 43 43 44 44 44 44 44
46 46 44 43 42 43 43 42 42 42 41 41 38 37 35 36 37 37 38 38 38 38 39 39 39 40 41 42 42 43 44 43 43 43 44 44 44 45 45 45 46 46 46 46
48 48 47 46 45 45 46 44 43 44 43 42 41 39 37 38 39 39 39 40 40 40 40 41 41 41 43 43 44 45 45 45 46 46 45 45 45 46 46 46 46 47 47 48
50 49 48 47 46 47 47 43 43 43 43 42 41 40 40 40 41 41 41 42 42 41 41 41 42 43 44 44 45 46 46 46 47 47 47 47 47 47 47 48 48 48 49 49
49 49 49 48 47 48 45 42 42 42 42 43 42 41 42 42 42 42 42 43 43 43 42 42 43 44 45 46 47 48 48 48 49 49 49 49 49 50 50 50 50 50 51 51
49 48 47 47 48 47 45 42 41 42 42 41 42 42 43 43 43 43 43 43 44 44 43 43 44 45 46 47 48 49 49 49 50 50 51 51 51 51 51 52 52 52 52 52
47 47 46 46 47 46 44 43 42 42 43 41 41 42 42 42 43 42 43 44 44 45 44 44 45 45 46 47 48 49 49 50 50 50 51 51 51 51 52 52 53 52 52 53
43 44 44 44 45 45 43 42 41 41 41 40 40 40 41 41 42 43 43 44 45 46 46 46 46 46 47 47 48 48 48 48 48 49 50 50 50 50 51 51 52 52 52 52
38 41 42 43 44 43 41 41 41 40 40 40 40 40 41 41 42 43 44 44 45 46 47 47 47 46 46 47 47 47 48 47 48 49 49 49 49 49 49 50 50 51 51 51
36 38 39 41 41 41 41 41 41 40 40 40 39 39 40 41 41 42 43 44 44 45 46 47 47 46 46 46 46 47 47 48 48 48 49 49 49 49 48 49 49 50 50 50
34 35 36 38 38 39 40 40 40 41 41 41 40 40 39 40 40 41 42 43 43 44 44 45 45 45 45 45 46 46 47 48 48 48 48 48 48 48 47 47 48 49 49 49
32 33 34 35 35 36 37 38 39 39 39 39 39 39 40 41 41 41 41 41 42 42 43 43 44 44 44 44 45 45 46 47 47 47 47 47 48 48 48 47 47 48 48 48
30 31 31 31 32 34 35 36 36 36 37 37 37 38 38 38 39 40 40 41 41 42 42 43 43 44 44 44 44 45 45 45 45 45 46 46 47 47 47 47 47 47 47 47

GEFSCGP_500_meanwind_204.txt.gz
Wind_Speed
30 30 29 29 29 30 30 30 29 29 29 30 29 28 28 29 29 29 29 29 30 29 29 30 31 30 30 30 28 29 29 30 32 34 35 35 36 36 36 35 35 35 36 36
32 31 30 31 31 30 31 31 30 30 30 30 29 28 28 28 27 28 28 28 28 29 30 30 31 30 31 30 29 28 29 30 31 33 34 34 35 36 36 36 35 36 37 36
33 32 32 32 31 31 31 31 30 30 30 30 30 29 28 28 28 28 29 29 28 29 30 30 32 31 31 31 29 29 28 29 29 31 32 34 36 36 35 35 35 36 38 38
35 33 33 33 32 32 32 31 31 31 31 31 31 31 28 28 29 29 29 28 29 30 31 31 32 32 30 31 31 31 30 29 31 31 32 34 35 35 35 35 35 36 37 38
36 35 34 34 33 33 33 32 32 32 32 32 31 32 29 29 30 30 29 29 29 30 32 33 33 32 31 31 32 32 31 30 30 31 32 33 34 33 34 35 36 36 37 38
37 36 35 34 34 34 33 33 33 33 33 33 31 31 30 30 31 30 30 31 31 31 32 33 33 34 34 33 34 33 31 32 31 31 31 33 34 33 33 35 36 36 37 39
37 37 37 35 35 34 34 33 33 34 34 33 31 32 30 29 30 31 31 32 33 33 33 33 33 34 34 35 34 33 34 33 33 32 32 33 34 34 34 35 36 37 38 38
39 38 37 36 35 35 34 34 34 35 35 34 32 32 30 29 30 31 32 33 33 34 34 34 34 34 35 35 35 35 35 35 35 34 34 34 35 35 35 36 36 37 38 39
40 40 38 37 36 36 36 36 35 37 37 36 35 33 31 31 31 32 32 33 33 33 34 36 35 34 35 35 36 36 36 37 37 37 36 36 36 36 36 37 38 38 39 41
42 42 40 39 38 38 37 36 37 37 38 37 36 33 32 32 32 32 32 33 34 35 35 35 36 35 34 35 36 36 37 38 38 38 37 37 37 37 37 37 39 40 41 41
42 43 42 41 40 39 39 38 38 39 40 39 37 34 32 31 31 31 32 33 35 36 36 36 36 37 37 37 37 37 37 38 38 38 38 38 38 38 39 38 39 41 41 42
42 43 44 43 42 41 41 40 39 39 40 39 38 35 32 31 31 32 33 34 35 37 38 39 39 38 39 40 40 39 39 39 39 39 40 39 39 39 39 39 39 40 41 42
42 43 44 44 44 42 42 41 41 41 41 40 39 36 34 32 32 33 34 35 36 38 39 40 40 40 40 41 42 42 41 41 41 41 41 41 41 41 40 41 41 42 44 45
43 44 45 44 43 43 43 42 42 42 43 42 39 36 34 34 34 34 35 36 37 39 39 40 41 40 41 41 42 42 42 43 42 43 42 41 41 41 42 42 42 43 45 46
46 46 46 45 45 45 44 44 44 44 44 44 40 37 35 36 36 36 36 36 37 38 39 40 41 41 41 42 42 42 42 44 44 44 43 43 42 42 43 43 43 44 45 46
48 48 47 47 46 46 46 45 45 45 44 43 42 39 36 37 37 36 36 37 37 39 39 40 41 41 41 41 41 42 42 43 44 44 44 44 44 44 44 44 45 45 46 47
48 48 48 48 47 48 48 44 44 44 42 42 41 39 37 37 36 36 37 37 38 39 39 40 40 40 40 41 41 42 43 43 44 45 46 46 46 46 46 46 46 46 47 48
47 47 47 46 46 49 46 43 42 41 41 41 41 39 38 37 36 36 36 37 38 39 40 41 41 41 41 42 43 43 44 45 46 47 47 47 48 48 49 49 49 49 49 50
44 44 45 45 45 46 44 42 41 41 40 40 40 38 38 37 37 36 36 37 38 39 40 41 42 43 42 43 43 43 45 46 47 47 48 48 48 49 50 51 51 51 51 51
39 40 41 42 43 44 42 40 39 40 40 38 37 37 38 37 37 35 35 37 38 38 39 40 41 42 42 42 43 43 44 45 46 47 48 49 49 50 50 51 51 51 52 52
35 36 37 38 40 41 40 39 38 39 37 36 35 36 37 37 37 36 36 37 37 38 39 39 40 40 41 41 43 43 44 45 46 48 49 49 50 50 50 50 50 50 51 51
31 32 33 34 35 36 37 37 37 36 35 35 35 35 36 36 36 37 37 37 37 37 38 39 40 41 41 41 43 44 44 44 46 47 48 48 49 48 48 48 49 49 49 49
29 31 31 32 33 33 33 34 34 34 34 34 34 34 35 35 35 36 37 37 38 38 38 39 40 40 40 40 40 41 41 43 44 45 46 46 47 47 47 47 48 48 48 48
26 27 28 30 31 32 32 32 33 32 32 32 32 32 32 33 33 34 35 36 37 38 39 40 40 40 40 40 41 40 41 41 42 43 44 44 45 46 46 46 46 47 47 47
23 24 25 26 27 29 31 32 32 32 32 32 32 32 32 33 33 34 34 34 35 36 37 38 40 40 40 40 40 40 41 41 42 42 43 44 44 45 45 45 45 46 46 46
21 22 23 23 24 25 26 28 30 32 33 33 33 32 33 33 34 34 34 34 34 34 35 36 37 39 39 40 40 40 40 40 41 42 42 43 43 44 44 44 44 45 45 45